Weather History for Waterloo, IA

Change the Weather History Date:

Thursday, June 27, 2013

  Actual Average Record
Temperature  
Mean Temperature 76 °F 73 °F  
Max Temperature 87 °F 84 °F 107 °F (1934)
Min Temperature 64 °F 62 °F 43 °F (1926)
Degree Days  
Heating Degree Days 0 0  
Month to date heating degree days 38 23  
Since 1 June heating degree days 38 23  
Since 1 July heating degree days 7271 7027  
Cooling Degree Days 11 8  
Month to date cooling degree days 155 153  
Year to date cooling degree days 208 209  
Since 1 June cooling degree days 155 153  
Growing Degree Days 26 (Base 50)    
Moisture  
Dew Point 64 °F    
Average Humidity 65    
Maximum Humidity 93    
Minimum Humidity 37    
Precipitation  
Precipitation 0.00 in 0.18 in 2.30 in (1921)
Month to date precipitation 4.44 4.46  
Year to date precipitation 28.02 16.58  
Snow  
Snow 0.00 in 0.00 in - ()
Month to date snowfall 0.0 0.0  
Since 1 June snowfall 0.0 0.0  
Since 1 July snowfall 50.0 35.3  
Snow Depth 0.00 in    
Sea Level Pressure  
Sea Level Pressure 29.83 in    
Wind  
Wind Speed 8 mph (West)    
Max Wind Speed 16 mph    
Max Gust Speed 22 mph    
Visibility 10 miles    
Events      
T = Trace of Precipitation, MM = Missing Value Source: NWS Daily Summary

Daily Weather History Graph

Daily Weather History Graph

Search for Another Location

Airport:

Trip Planner

Search our weather history database for the weather conditions in past years. The results will help you decide how hot, cold, wet, or windy it might be!

Date:

Astronomy

Jun. 27, 2013 Rise Set
Actual Time 5:34 AM CDT 8:51 PM CDT
Civil Twilight 4:59 AM CDT 9:26 PM CDT
Nautical Twilight 4:14 AM CDT 10:11 PM CDT
Astronomical Twilight 3:18 AM CDT 11:06 PM CDT
Moon 11:41 PM CDT (6/27) 10:42 AM CDT (6/27)
Length of Visible Light 16h 26m
Length of Day
15h 17m
Waning Gibbous, 76% of the Moon is Illuminated
Jun 27
Waning Gibbous
Jun 29
Last Quarter
Jul 8
New
Jul 15
First Quarter
Jul 22
Full

Hourly Weather History & Observations

Time (CDT) Temp. Heat Index Dew Point Humidity Pressure Visibility Wind Dir Wind Speed Gust Speed Precip Events Conditions
12:54 AM 68.0 °F - 66.9 °F 96% 29.81 in 10.0 mi WNW 3.5 mph - N/A   Clear
1:54 AM 66.9 °F - 64.9 °F 93% 29.82 in 10.0 mi West 3.5 mph - N/A   Clear
2:54 AM 66.9 °F - 64.9 °F 93% 29.83 in 10.0 mi West 5.8 mph - N/A   Clear
3:54 AM 66.9 °F - 64.0 °F 90% 29.83 in 10.0 mi West 5.8 mph - N/A   Clear
4:54 AM 66.0 °F - 64.0 °F 93% 29.84 in 10.0 mi West 3.5 mph - N/A   Clear
5:54 AM 64.0 °F - 63.0 °F 96% 29.85 in 10.0 mi WSW 5.8 mph - N/A   Clear
6:54 AM 69.1 °F - 66.9 °F 93% 29.85 in 10.0 mi Calm Calm - N/A   Clear
7:54 AM 73.9 °F - 66.0 °F 76% 29.85 in 10.0 mi West 5.8 mph - N/A   Clear
8:54 AM 79.0 °F - 66.0 °F 64% 29.84 in 10.0 mi SW 3.5 mph - N/A   Clear
9:54 AM 81.0 °F 83.0 °F 66.0 °F 60% 29.83 in 10.0 mi WSW 9.2 mph - N/A   Clear
10:54 AM 81.0 °F 82.7 °F 64.9 °F 58% 29.82 in 10.0 mi WSW 13.8 mph - N/A   Clear
11:54 AM 79.0 °F - 66.0 °F 64% 29.85 in 10.0 mi West 13.8 mph - N/A   Clear
12:54 PM 81.0 °F 83.0 °F 66.0 °F 60% 29.85 in 10.0 mi West 11.5 mph - N/A   Clear
1:54 PM 82.0 °F 84.1 °F 66.0 °F 58% 29.85 in 10.0 mi West 15.0 mph 18.4 mph N/A   Clear
2:54 PM 82.0 °F 84.5 °F 66.9 °F 60% 29.84 in 10.0 mi West 11.5 mph - N/A   Clear
3:54 PM 86.0 °F 87.6 °F 64.9 °F 49% 29.82 in 10.0 mi WNW 12.7 mph 20.7 mph N/A   Clear
4:54 PM 87.1 °F 86.7 °F 60.1 °F 40% 29.81 in 10.0 mi NW 15.0 mph 21.9 mph N/A   Clear
5:54 PM 86.0 °F 84.9 °F 57.0 °F 37% 29.81 in 10.0 mi NW 12.7 mph 21.9 mph N/A   Clear
6:54 PM 84.0 °F 83.5 °F 57.9 °F 41% 29.79 in 10.0 mi NW 16.1 mph 20.7 mph N/A   Clear
7:54 PM 80.1 °F 80.7 °F 59.0 °F 48% 29.80 in 10.0 mi NW 5.8 mph - N/A   Clear
8:54 PM 75.0 °F - 61.0 °F 62% 29.79 in 10.0 mi West 5.8 mph - N/A   Clear
9:54 PM 73.9 °F - 60.1 °F 62% 29.81 in 10.0 mi WNW 5.8 mph - N/A   Clear
10:54 PM 69.1 °F - 60.1 °F 73% 29.82 in 10.0 mi WSW 6.9 mph - N/A   Clear
11:54 PM 69.1 °F - 59.0 °F 70% 29.83 in 10.0 mi WSW 6.9 mph - N/A   Clear